KAITUO 1B
1 40912U 15049P   18048.02743461  .00000897  00000-0  46737-4 0  9998
2 40912  97.4509  57.0737 0017351  71.3534 348.1355 15.18443196133436
TIANWANG 1C (TW-1C)
1 40926U 15051B   18048.42272058  .00006327  00000-0  12668-3 0  9998
2 40926  97.1995  91.3865 0010288   7.4061  51.1852 15.47052638134788
TIANWANG 1B (TW-1B)
1 40927U 15051C   18048.37425926  .00006291  00000-0  13114-3 0  9994
2 40927  97.2089  91.2359 0010811  18.5873 174.2420 15.45869707134696
TIANWANG 1A (TW-1A)
1 40928U 15051D   18047.87166479 +.00002588 +00000-0 +71292-4 0  9991
2 40928 097.2004 084.1974 0013632 042.5576 058.8814 15.37963549134288
LAPAN A2
1 40931U 15052B   18047.15305551 +.00000701 +00000-0 +86034-5 0  9999
2 40931 005.9984 293.1634 0013026 093.9737 266.1977 14.76565028129084
LQSAT
1 40958U 15057A   18048.47540893  .00000030  00000-0  12373-4 0  9998
2 40958  97.9531 124.1849 0018436   5.8473 354.2946 14.73015897127222
CHUBUSAT 2
1 41338U 16012B   18047.26543498 +.00000400 +00000-0 +24573-4 0  9999
2 41338 031.0045 001.8858 0013851 315.4735 044.4787 14.99919500109663
CHUBUSAT 3
1 41339U 16012C   18048.22602470  .00000310  00000-0  17464-4 0  9994
2 41339  31.0111 354.5495 0013589 331.9027  28.0856 15.00111295109795
OUFTI-1
1 41458U 16025C   18048.38759901  .00000512  00000-0  31341-4 0  9993
2 41458  98.1506 104.7727 0171197 188.7299 171.0933 15.04239076 99426
E-STAR-2
1 41459U 16025D   18047.77554031  .00001329  00000-0  73982-4 0  9997
2 41459  98.1500 104.0104 0171941 191.5549 168.1713 15.04000322 99322
AAUSAT 4
1 41460U 16025E   18048.39449520  .00001130  00000-0  63045-4 0  9993
2 41460  98.1465 104.9924 0164004 186.0222 173.9033 15.05285695 99465
NUSAT 1
1 41557U 16033B   18047.81468817  .00001494  00000-0  57362-4 0  9993
2 41557  97.4437 132.2347 0012917 217.9056 142.1275 15.27994432 95776
BEESAT 4
1 41619U 16040W   18048.14511865  .00001473  00000-0  68009-4 0  9996
2 41619  97.4309 112.8845 0010192 294.2722  65.7449 15.21745797 79835
PRATHAM
1 41783U 16059A   18048.16812301  .00000059  00000-0  20764-4 0  9994
2 41783  98.1342 111.5718 0034879 111.8634 248.6283 14.62900575 74419
ALSAT 1N
1 41789U 16059G   18048.15785572  .00000070  00000-0  22455-4 0  9990
2 41789  98.1347 112.5427 0029846 104.3027 256.1495 14.64127005 74453
NAYIF 1
1 42017U 17008BX  18047.89412692 +.00001573 +00000-0 +67830-4 0  9995
2 42017 097.4637 113.6042 0008131 085.3548 274.8618 15.24036600055749
LILACSAT-1
1 42725U 98067ME  18048.01767804  .00014712  00000-0  15898-3 0  9993
2 42725  51.6387 248.4536 0006150 140.6275 351.0013 15.63855691 41682
MAX VALIER SAT
1 42778U 17036P   18047.73595162 +.00000963 +00000-0 +46412-4 0  9992
2 42778 097.4200 109.3653 0014130 127.9759 232.2755 15.21034545036193
